EW2235 Weather Reports


Display with metric or nautical units.
time (UTC)temp
F
wind
direction
speed
MPH
gust
MPH
rain 1hr
in
rain 24hr
in
rain mn
in
humidity
%
barometer
mb
20260906052312 61 314 0.0 0.0 0.00 0.00 0.00 75 1015.8
20260906051819 61 338 0.0 0.0 0.00 0.00 0.00 74 1015.7
20260906051319 61 335 0.0 0.0 0.00 0.00 0.00 73 1015.8
20260906050829 62 338 0.0 0.0 0.00 0.00 0.00 72 1015.8
20260906050328 62 323 0.0 0.0 0.00 0.00 0.00 71 1015.8
20260906045838 62 323 0.0 0.0 0.00 0.00 0.00 70 1015.8
20260906045318 62 345 0.0 2.0 0.00 0.00 0.00 69 1015.8
20260906044819 63 326 0.0 3.0 0.00 0.00 0.00 68 1015.8
20260906044325 63 332 0.0 5.0 0.00 0.00 0.00 68 1015.9
20260906043827 63 335 0.0 5.0 0.00 0.00 0.00 66 1015.9
20260906043327 63 343 0.0 0.0 0.00 0.00 0.00 65 1016.0
20260906042835 63 334 0.0 0.0 0.00 0.00 0.00 65 1016.0
20260906042314 63 337 0.0 0.0 0.00 0.00 0.00 66 1016.0
20260906041822 62 337 0.0 0.0 0.00 0.00 0.00 67 1016.0
20260906041328 62 337 0.0 0.0 0.00 0.00 0.00 68 1016.1
20260906040829 62 337 0.0 0.0 0.00 0.00 0.00 68 1016.1
20260906040329 62 337 0.0 0.0 0.00 0.00 0.00 68 1016.1
20260906035839 62 337 0.0 0.0 0.00 0.00 0.00 69 1016.1
20260906035319 62 337 0.0 0.0 0.00 0.00 0.00 68 1016.0
20260906034822 62 337 0.0 0.0 0.00 0.00 0.00 68 1016.0
20260906034329 62 337 0.0 0.0 0.00 0.00 0.00 68 1015.8
20260906033832 62 337 0.0 0.0 0.00 0.00 0.00 68 1015.8
20260906033330 62 337 0.0 0.0 0.00 0.00 0.00 68 1015.8
20260906032819 62 337 0.0 0.0 0.00 0.00 0.00 69 1015.7
20260906032318 62 337 0.0 0.0 0.00 0.00 0.00 69 1015.6
20260906031821 62 337 0.0 0.0 0.00 0.00 0.00 70 1015.6
20260906031328 62 337 0.0 0.0 0.00 0.00 0.00 70 1015.5
20260906030817 63 337 0.0 0.0 0.00 0.00 0.00 70 1015.6
20260906030323 63 337 0.0 0.0 0.00 0.00 0.00 70 1015.5
20260906025832 63 337 0.0 0.0 0.00 0.00 0.00 69 1015.6
20260906025331 63 337 0.0 0.0 0.00 0.00 0.00 69 1015.5
20260906024821 63 337 0.0 0.0 0.00 0.00 0.00 69 1015.5
20260906024326 63 337 0.0 0.0 0.00 0.00 0.00 68 1015.5
20260906023828 63 356 0.0 0.0 0.00 0.00 0.00 68 1015.5
20260906023318 63 357 0.0 0.0 0.00 0.00 0.00 69 1015.4
20260906022821 63 356 0.0 0.0 0.00 0.00 0.00 70 1015.5
20260906022327 64 357 0.0 0.0 0.00 0.00 0.00 71 1015.5
20260906021829 64 356 0.0 0.0 0.00 0.00 0.00 70 1015.5
20260906021328 64 356 0.0 0.0 0.00 0.00 0.00 71 1015.5
20260906020817 64 357 0.0 0.0 0.00 0.00 0.00 72 1015.6
20260906020316 64 357 0.0 0.0 0.00 0.00 0.00 71 1015.6
20260906015818 64 356 0.0 0.0 0.00 0.00 0.00 71 1015.6
20260906015322 65 357 0.0 0.0 0.00 0.00 0.00 70 1015.6
20260906014821 65 356 0.0 0.0 0.00 0.00 0.00 69 1015.7
20260906014346 65 356 0.0 0.0 0.00 0.00 0.00 68 1015.8
20260906013854 66 357 0.0 0.0 0.00 0.00 0.00 66 1015.8
20260906013333 66 356 0.0 0.0 0.00 0.00 0.00 64 1015.8
20260906012837 66 356 0.0 0.0 0.00 0.00 0.00 64 1015.8
20260906012344 66 356 0.0 0.0 0.00 0.00 0.00 63 1015.8
20260906011846 66 356 0.0 0.0 0.00 0.00 0.00 63 1015.8
20260906011351 67 4 0.0 0.0 0.00 0.00 0.00 62 1015.7
20260906010840 66 344 0.0 0.0 0.00 0.00 0.00 64 1015.8
20260906010318 66 1 0.0 0.0 0.00 0.00 0.00 65 1015.7
20260906005821 65 335 0.0 0.0 0.00 0.00 0.00 66 1015.7
20260906005327 65 126 0.0 0.0 0.00 0.00 0.00 68 1015.7
20260906004830 65 125 0.0 0.0 0.00 0.00 0.00 70 1015.7
20260906004337 65 126 0.0 0.0 0.00 0.00 0.00 69 1015.7
20260906003820 66 125 0.0 0.0 0.00 0.00 0.00 68 1015.7
20260906003407 66 125 0.0 0.0 0.00 0.00 0.00 66 1015.8
20260906002824 66 125 0.0 0.0 0.00 0.00 0.00 66 1015.8
20260906002330 66 125 0.0 0.0 0.00 0.00 0.00 66 1015.8
20260906001832 66 125 0.0 0.0 0.00 0.00 0.00 64 1015.8
20260906001311 66 125 0.0 0.0 0.00 0.00 0.00 62 1015.8
20260906000821 66 125 0.0 0.0 0.00 0.00 0.00 64 1015.9
20260906000320 67 126 0.0 0.0 0.00 0.00 0.00 63 1015.8
20260905235823 67 125 0.0 0.0 0.00 0.00 0.00 62 1015.8
20260905235329 67 125 0.0 0.0 0.00 0.00 0.00 61 1015.8
20260905234832 67 126 0.0 0.0 0.00 0.00 0.00 62 1015.8
20260905234311 67 125 0.0 0.0 0.00 0.00 0.00 63 1015.7
20260905233842 67 125 0.0 0.0 0.00 0.00 0.00 62 1015.8
20260905233347 67 125 0.0 0.0 0.00 0.00 0.00 63 1015.8
20260905232856 67 125 0.0 0.0 0.00 0.00 0.00 63 1015.8
20260905232336 67 124 0.0 0.0 0.00 0.00 0.00 62 1015.8
20260905231844 67 142 0.0 0.0 0.00 0.00 0.00 63 1015.9
20260905231350 67 336 0.0 0.0 0.00 0.00 0.00 62 1015.9
20260905230852 67 221 0.0 0.0 0.00 0.00 0.00 62 1016.0
20260905230342 67 211 0.0 0.0 0.00 0.04 0.00 63 1016.0
20260905225851 66 349 0.0 1.0 0.00 0.04 0.00 64 1016.1
20260905225316 66 342 0.0 1.0 0.00 0.04 0.00 64 1016.1
20260905224827 66 354 0.0 0.0 0.00 0.04 0.00 64 1016.1
20260905224335 66 333 0.0 4.0 0.00 0.04 0.00 65 1016.2
20260905223817 66 354 0.0 5.0 0.00 0.04 0.00 64 1016.3
20260905223316 66 312 0.0 3.0 0.00 0.04 0.00 64 1016.2
20260905222820 66 307 0.0 1.0 0.00 0.04 0.00 64 1016.2
20260905222326 66 333 0.0 4.0 0.00 0.04 0.00 65 1016.3
20260905221829 66 340 0.0 5.0 0.00 0.04 0.00 64 1016.4
20260905221336 66 334 0.0 5.0 0.00 0.04 0.00 64 1016.4
20260905220819 66 4 1.0 3.0 0.00 0.04 0.00 64 1016.4
20260905220319 66 332 0.0 1.0 0.00 0.05 0.00 64 1016.5
20260905215831 66 346 0.0 1.0 0.00 0.05 0.00 64 1016.5
20260905215328 66 343 0.0 0.0 0.00 0.05 0.00 64 1016.5
20260905214832 66 323 0.0 3.0 0.00 0.05 0.00 65 1016.5
20260905214312 66 354 0.0 3.0 0.00 0.05 0.00 65 1016.5
20260905213821 66 333 0.0 0.0 0.00 0.05 0.00 66 1016.6
20260905213322 66 349 0.0 0.0 0.00 0.05 0.00 66 1016.6
20260905212836 66 345 0.0 0.0 0.00 0.05 0.00 65 1016.5
20260905212322 66 341 0.0 0.0 0.00 0.05 0.00 64 1016.5
20260905211825 66 325 0.0 0.0 0.00 0.05 0.00 66 1016.6
20260905211325 65 337 0.0 0.0 0.00 0.05 0.00 66 1016.6
20260905210835 66 318 0.0 0.0 0.00 0.05 0.00 65 1016.7
20260905210316 66 3 0.0 0.0 0.00 0.05 0.00 65 1016.8
20260905205818 66 3 0.0 1.0 0.00 0.05 0.00 66 1016.7
20260905205325 66 5 0.0 3.0 0.00 0.05 0.00 65 1016.7
20260905204829 66 355 1.0 4.0 0.00 0.05 0.00 64 1016.7
20260905204328 67 341 0.0 3.0 0.00 0.05 0.00 66 1016.8
20260905203820 66 30 0.0 0.0 0.00 0.05 0.00 67 1016.8
20260905203319 66 9 0.0 0.0 0.00 0.05 0.00 66 1016.8
20260905202822 66 357 0.0 0.0 0.00 0.05 0.00 64 1016.8
20260905202328 67 42 0.0 0.0 0.00 0.05 0.00 66 1016.8
20260905201830 66 115 0.0 0.0 0.00 0.05 0.00 65 1016.8
20260905201311 66 41 0.0 0.0 0.00 0.05 0.00 67 1016.8
20260905200821 66 331 0.0 0.0 0.00 0.05 0.00 66 1016.8
20260905200321 66 330 0.0 6.0 0.00 0.05 0.00 66 1016.8
20260905195824 66 50 1.0 6.0 0.00 0.05 0.00 65 1016.8
20260905195312 68 318 1.0 3.0 0.00 0.05 0.00 64 1016.9
20260905194812 68 293 0.0 6.0 0.00 0.05 0.00 66 1016.9
20260905194312 67 135 1.0 7.0 0.00 0.05 0.00 66 1016.9
20260905193821 67 156 1.0 7.0 0.00 0.05 0.00 66 1016.9
20260905193320 67 144 0.0 6.0 0.00 0.05 0.00 65 1017.0
20260905192831 67 125 1.0 6.0 0.00 0.05 0.00 64 1017.0
20260905192313 66 289 0.0 3.0 0.00 0.05 0.00 67 1017.0
20260905191817 65 341 1.0 3.0 0.00 0.05 0.00 66 1017.1
20260905191324 65 354 0.0 1.0 0.00 0.05 0.00 66 1017.2
20260905190822 65 34 0.0 1.0 0.00 0.05 0.00 68 1017.2
20260905190328 64 316 0.0 6.0 0.00 0.06 0.00 71 1017.2
20260905185836 64 333 3.0 6.0 0.00 0.06 0.00 69 1017.2
20260905185316 64 321 0.0 6.0 0.00 0.06 0.00 71 1017.3
20260905184832 63 351 1.0 6.0 0.00 0.06 0.00 71 1017.3
20260905184337 64 338 0.0 0.0 0.00 0.06 0.00 69 1017.4
20260905183816 64 309 0.0 0.0 0.00 0.06 0.00 70 1017.4
20260905183321 64 340 0.0 0.0 0.00 0.06 0.00 70 1017.5
20260905182829 65 353 0.0 0.0 0.00 0.06 0.00 73 1017.5
20260905181816 64 341 0.0 5.0 0.00 0.06 0.00 74 1017.5
20260905181322 62 94 0.0 5.0 0.00 0.06 0.00 74 1017.5
20260905180824 63 349 0.0 4.0 0.00 0.06 0.00 74 1017.5
20260905180324 64 349 0.0 3.0 0.00 0.06 0.00 73 1017.6
20260905175832 63 141 0.0 3.0 0.00 0.06 0.00 76 1017.6
20260905175312 63 156 0.0 0.0 0.00 0.06 0.00 77 1017.6
20260905174814 63 292 0.0 3.0 0.00 0.06 0.00 77 1017.6
20260905174321 62 51 0.0 4.0 0.00 0.06 0.00 78 1017.6
20260905173823 62 126 0.0 4.0 0.00 0.06 0.00 79 1017.5
20260905173329 62 150 0.0 0.0 0.00 0.06 0.00 81 1017.6
20260905172832 61 120 0.0 0.0 0.00 0.06 0.00 82 1017.6
20260905172331 60 148 0.0 0.0 0.00 0.06 0.00 85 1017.6
20260905171814 60 330 0.0 0.0 0.00 0.06 0.00 84 1017.5
20260905171320 59 139 0.0 3.0 0.00 0.06 0.00 87 1017.6
20260905170822 59 141 0.0 3.0 0.00 0.06 0.00 87 1017.6
20260905170329 59 294 0.0 0.0 0.00 0.06 0.00 89 1017.7
20260905165831 58 327 0.0 1.0 0.00 0.06 0.00 90 1017.7
20260905165338 58 311 0.0 1.0 0.00 0.06 0.00 91 1017.7
20260905164820 57 346 0.0 4.0 0.00 0.06 0.00 91 1017.7
20260905164318 57 20 0.0 4.0 0.00 0.06 0.00 92 1017.7
20260905163820 58 325 0.0 1.0 0.00 0.06 0.00 92 1017.6
20260905163327 58 141 0.0 4.0 0.00 0.06 0.00 93 1017.6
20260905162829 58 155 0.0 4.0 0.00 0.06 0.00 93 1017.6
20260905162334 58 82 0.0 0.0 0.00 0.06 0.00 94 1017.6
20260905161817 57 49 0.0 3.0 0.00 0.06 0.00 94 1017.7
20260905161316 57 52 0.0 0.0 0.00 0.06 0.00 93 1017.7
20260905160826 57 52 0.0 0.0 0.00 0.06 0.00 93 1017.7
20260905160325 56 42 0.0 1.0 0.00 0.06 0.00 94 1017.7
20260905155824 56 42 0.0 4.0 0.00 0.06 0.00 94 1017.7
20260905155331 55 142 0.0 4.0 0.00 0.06 0.00 94 1017.6
20260905154813 55 131 0.0 1.0 0.00 0.06 0.00 94 1017.7
20260905154312 55 89 0.0 2.0 0.00 0.06 0.00 94 1017.6
20260905153822 55 89 0.0 2.0 0.00 0.06 0.00 94 1017.6
20260905153322 54 148 0.0 1.0 0.00 0.06 0.00 93 1017.6
20260905152815 54 94 0.0 1.0 0.00 0.06 0.00 93 1017.7
20260905152321 54 126 0.0 1.0 0.00 0.06 0.00 93 1017.6
20260905151907 54 128 0.0 1.0 0.00 0.06 0.00 93 1017.7
20260905151321 54 136 0.0 1.0 0.00 0.06 0.00 93 1017.6
20260905150831 54 101 0.0 0.0 0.00 0.06 0.00 93 1017.6
20260905150330 54 108 0.0 1.0 0.00 0.06 0.00 93 1017.7
20260905145813 54 163 0.0 0.0 0.00 0.06 0.00 93 1017.7
20260905145312 54 143 0.0 0.0 0.00 0.06 0.00 93 1017.6
20260905144820 54 118 0.0 0.0 0.00 0.06 0.00 93 1017.6
20260905144319 54 126 0.0 0.0 0.00 0.06 0.00 93 1017.6
20260905143829 54 96 0.0 0.0 0.00 0.06 0.00 93 1017.6
20260905143311 54 134 0.0 0.0 0.00 0.06 0.00 93 1017.5
20260905142814 54 153 0.0 0.0 0.00 0.06 0.00 93 1017.5
20260905142319 54 91 0.0 0.0 0.00 0.06 0.00 93 1017.5
20260905141820 54 131 0.0 0.0 0.00 0.06 0.00 93 1017.5
20260905141328 54 127 0.0 0.0 0.00 0.06 0.00 93 1017.4
20260905140830 55 136 0.0 0.0 0.00 0.06 0.00 93 1017.5
20260905140328 55 171 0.0 0.0 0.00 0.06 0.00 93 1017.5
20260905135818 55 97 0.0 0.0 0.00 0.06 0.00 93 1017.4
20260905135314 55 105 0.0 0.0 0.00 0.06 0.00 93 1017.5
20260905134823 55 96 0.0 0.0 0.00 0.06 0.00 93 1017.5
20260905134330 55 120 0.0 0.0 0.00 0.06 0.00 93 1017.4
20260905133818 55 140 0.0 0.0 0.00 0.06 0.00 93 1017.3
20260905133410 55 140 0.0 0.0 0.00 0.06 0.00 93 1017.3
20260905132834 55 132 0.0 0.0 0.00 0.06 0.00 93 1017.3
20260905132313 55 132 0.0 0.0 0.00 0.06 0.00 93 1017.2
20260905131822 55 145 0.0 0.0 0.00 0.06 0.00 93 1017.3
20260905131321 55 91 0.0 0.0 0.00 0.06 0.00 93 1017.3
20260905130824 55 91 0.0 0.0 0.00 0.06 0.00 93 1017.2
20260905130330 55 91 0.0 0.0 0.00 0.06 0.00 93 1017.2
20260905125813 55 138 0.0 0.0 0.00 0.06 0.00 93 1017.2
20260905125319 55 141 0.0 0.0 0.00 0.06 0.00 93 1017.1
20260905124829 55 133 0.0 0.0 0.00 0.06 0.00 93 1017.1
20260905124328 55 141 0.0 0.0 0.00 0.06 0.00 93 1017.1
20260905123838 55 101 0.0 0.0 0.00 0.06 0.00 93 1017.1
20260905123317 55 101 0.0 0.0 0.00 0.06 0.00 93 1017.2
20260905122821 55 101 0.0 0.0 0.00 0.06 0.00 93 1017.1
20260905122320 55 119 0.0 0.0 0.00 0.06 0.00 93 1017.0
20260905121829 55 119 0.0 0.0 0.00 0.06 0.00 93 1017.0
20260905121328 55 115 0.0 0.0 0.00 0.06 0.00 93 1016.9
20260905120838 55 117 0.0 0.0 0.00 0.06 0.00 93 1017.0
20260905120317 55 117 0.0 0.0 0.00 0.11 0.00 93 1016.9
20260905115819 55 117 0.0 0.0 0.00 0.11 0.00 93 1017.0
20260905115325 55 116 0.0 0.0 0.00 0.11 0.00 93 1017.0
20260905114827 55 132 0.0 0.0 0.00 0.11 0.00 93 1017.0
20260905114327 55 132 0.0 0.0 0.00 0.11 0.00 93 1017.0
20260905113836 55 132 0.0 0.0 0.00 0.11 0.00 93 1016.9
20260905113315 55 134 0.0 0.0 0.00 0.11 0.00 93 1016.9
20260905112818 55 134 0.0 0.0 0.00 0.11 0.00 93 1016.9
20260905112324 55 134 0.0 0.0 0.00 0.11 0.00 93 1016.9
20260905111827 55 134 0.0 0.0 0.00 0.11 0.00 93 1016.9
20260905111333 55 134 0.0 0.0 0.00 0.11 0.00 93 1016.8
20260905110815 55 134 0.0 0.0 0.00 0.11 0.00 93 1016.9
20260905110322 55 134 0.0 0.0 0.00 0.14 0.00 93 1016.9
20260905105830 55 134 0.0 0.0 0.00 0.14 0.00 93 1016.9
20260905105328 55 134 0.0 0.0 0.00 0.14 0.00 93 1017.0
20260905104814 55 134 0.0 0.0 0.00 0.14 0.00 93 1017.0
20260905104321 55 134 0.0 0.0 0.00 0.14 0.00 93 1017.0
20260905103822 55 134 0.0 0.0 0.00 0.14 0.00 93 1017.0
20260905103327 55 134 0.0 0.0 0.00 0.14 0.00 93 1017.0
20260905102829 54 134 0.0 0.0 0.00 0.14 0.00 93 1017.0
20260905102315 54 134 0.0 0.0 0.00 0.14 0.00 93 1017.0
20260905101817 54 134 0.0 0.0 0.00 0.14 0.00 93 1017.0
20260905101316 54 134 0.0 0.0 0.00 0.14 0.00 93 1017.0
20260905100825 55 134 0.0 0.0 0.00 0.14 0.00 93 1017.0
20260905100325 55 134 0.0 0.0 0.00 0.14 0.00 93 1017.0
20260905095835 55 134 0.0 0.0 0.00 0.14 0.00 93 1017.1
20260905095314 55 134 0.0 0.0 0.00 0.14 0.00 93 1017.0
20260905094816 55 134 0.0 0.0 0.00 0.14 0.00 93 1017.1
20260905094323 55 134 0.0 0.0 0.00 0.14 0.00 93 1017.1
20260905093825 55 134 0.0 0.0 0.00 0.14 0.00 93 1017.0
20260905093321 55 134 0.0 0.0 0.00 0.14 0.00 93 1016.9
20260905092830 55 134 0.0 0.0 0.00 0.14 0.00 93 1016.9
20260905092330 55 134 0.0 0.0 0.00 0.14 0.00 93 1017.0
20260905091812 55 134 0.0 0.0 0.00 0.14 0.00 93 1017.0
20260905091319 55 134 0.0 0.0 0.00 0.14 0.00 93 1017.0
20260905090821 55 134 0.0 0.0 0.00 0.14 0.00 93 1016.9
20260905090327 55 134 0.0 0.0 0.00 0.14 0.00 93 1016.9
20260905085824 55 128 0.0 0.0 0.00 0.14 0.00 93 1016.9
20260905085311 55 136 0.0 0.0 0.00 0.14 0.00 93 1016.9
20260905084814 55 136 0.0 0.0 0.00 0.14 0.00 93 1016.9
20260905084313 55 136 0.0 0.0 0.00 0.14 0.00 93 1016.8
20260905083322 55 136 0.0 0.0 0.00 0.14 0.00 93 1016.7
20260905082831 55 136 0.0 0.0 0.00 0.14 0.00 93 1016.7
20260905082331 55 136 0.0 0.0 0.00 0.14 0.00 93 1016.7
20260905081814 55 136 0.0 0.0 0.00 0.14 0.00 93 1016.7
20260905081320 55 136 0.0 0.0 0.00 0.14 0.00 93 1016.7
20260905080320 55 131 0.0 0.0 0.00 0.14 0.00 93 1016.6
20260905075829 55 127 0.0 0.0 0.00 0.14 0.00 93 1016.6
20260905075325 55 119 0.0 0.0 0.00 0.14 0.00 93 1016.6
20260905074834 55 119 0.0 0.0 0.00 0.14 0.00 93 1016.6
20260905074313 55 119 0.0 0.0 0.00 0.14 0.00 93 1016.5
20260905072833 55 79 0.0 0.0 0.00 0.14 0.00 93 1016.5
20260905072312 55 139 0.0 0.0 0.00 0.14 0.00 93 1016.4
20260905071815 55 139 0.0 0.0 0.00 0.14 0.00 93 1016.4
20260905071321 55 139 0.0 0.0 0.00 0.14 0.00 93 1016.4
20260905070331 55 139 0.0 0.0 0.00 0.14 0.14 93 1016.4
20260905065817 55 139 0.0 0.0 0.00 0.14 0.14 93 1016.4
20260905065318 55 139 0.0 0.0 0.00 0.14 0.14 93 1016.3
20260905064820 55 139 0.0 0.0 0.00 0.14 0.14 93 1016.3
20260905064326 55 139 0.0 0.0 0.00 0.14 0.14 93 1016.2
20260905063828 55 139 0.0 0.0 0.00 0.14 0.14 93 1016.2
20260905063334 55 139 0.0 0.0 0.00 0.14 0.14 93 1016.2
20260905062817 55 139 0.0 0.0 0.00 0.14 0.14 93 1016.0
20260905062316 55 139 0.0 0.0 0.00 0.14 0.14 93 1016.1
20260905061825 55 139 0.0 0.0 0.00 0.14 0.14 93 1016.0
20260905061325 55 139 0.0 0.0 0.00 0.14 0.14 93 1016.1
20260905060828 55 139 0.0 0.0 0.00 0.14 0.14 93 1016.1
20260905060333 55 139 0.0 0.0 0.00 0.14 0.14 93 1016.0
20260905055816 55 139 0.0 0.0 0.00 0.14 0.14 93 1016.0
20260905055315 55 139 0.0 0.0 0.00 0.14 0.14 93 1016.0
20260905054825 55 139 0.0 0.0 0.00 0.14 0.14 93 1016.0
20260905054324 55 139 0.0 0.0 0.00 0.14 0.14 93 1016.0
20260905053814 55 139 0.0 0.0 0.00 0.14 0.14 93 1016.0
20260905053319 55 139 0.0 0.0 0.00 0.14 0.14 93 1016.0
20260905052821 55 139 0.0 0.0 0.00 0.14 0.14 93 1016.0